ギブス彗星

P/2007 R2 ( Gibbs )

English version
Home page
Total 6,336 html files since Dec. 4, 1995
Updated on December 30, 2007

---------------------------------------------------------------------

・ プロフィール

発見日 2007年9月10日
発見光度 18.2等
発見者 A. R. Gibbs (Catalina Sky Survey)

・ 写真集

・ 軌道要素

Epoch 2007 Aug. 8.0 TT = JDT 2454320.5
T 2007 Aug. 26.66870 TT                                 MPC
q   1.4658139            (2000.0)            P               Q
n   0.15456182     Peri.  353.04307     +0.99946393     -0.03251330
a   3.4387550      Node     8.82287     +0.03111422     +0.90683257
e   0.5737371      Incl.    1.43399     +0.01018592     +0.42023514
P   6.38

・ 光度変化

        m1 = 17.5 + 5 logΔ + 10.0 log r

---------------------------------------------------------------------

軌道要素はM.P.E.C. 2007-W34に掲載されたものです。
光度グラフはComet for Windowsで作成したものです。

---------------------------------------------------------------------

Copyright(C) 1995-2008 Seiichi Yoshida (comet@aerith.net). All rights reserved.